Showing default

CYGFM07, 41890

Orbit data source: Space-Track

CYGFM07, 41890 is an American payload satellite in LEO that was launched on Thu, 15 Dec 2016 UTC via a PEGASUS XL launch vehicle from the Pegasus Launch, Eastern Range Air Space (ERAS). Payloads include a variety of satellites, spacecraft, and rockets equipped with specific instruments for various scientific and technological missions. These include communications satellites like Starlink; space stations such as the ISS; scientific satellites like the Hubble; Earth observation satellites from companies like Planet Labs, Umbra, and HawkEye 360; GPS; miniature CubeSats for education and research; and military/defense satellites.

Loading next visibility...
CYGFM07 details
Identifier
41890, 2016-078G
Orbit
LEO
Last TLE update1 day ago
Origin
Flag of USLARCN/SWRIB (US)
ManufacturerSST-US
MissionExtended mission Civil Science
Bus & MotorCYGNSS, Unknown motor
Mass29 kg wet, 29 kg dry
Launch date (UTC)
2016-12-15 (8 years ago)
Launch vehicle
PEGASUS XL
Launch site
Pegasus Launch, Eastern Range Air Space (ERAS)
Object type
Payload
Rocket body
Debris
Shape & HBRHalf Hex Cyl + 2 Pan, 1.7 m
Radar Cross Section0.450 m², Medium (>0.1 m² and < 1m²)

Expand to show TLE details & history

TLE from 1 day ago
0 CYGFM07
1 41890U 16078G   24360.65815802  .00023668  00000-0  66539-3 0  9991
2 41890  34.9484 144.1377 0008923 171.9492 188.1370 15.35532720445552
Epoch: 2024-12-25T15:47Z
Definitive object data (Epoch: 2024-12-25T15:47:44.852Z)
Latitude-0.00004°
Longitude172.55202°
Altitude464.273 km
Speed7.633 km/s
True Right ascension09h 36m 33s
True Declination0° 00' 00"
Sunlit
Object was in full shadow at TLE epoch
Visualization TLE readout
Latitude14.45639°
Longitude-36.23723°
Altitude451.978 km
Speed7.648 km/s
Apparent Right ascension22h 19m 58s
Apparent Declination-42° 20' 43"
Sunlit
Object is in daylight
Visualization observer readout
Local Sidereal Time18:21:59
Azimuth139.943° SSE
Elevation-8.307°
Doppler factor1
Orbital elements
Apogee altitude468.719 km
Perigee altitude456.511 km
Semi-major axis6,840.752 km
Eccentricity0.0008923
Inclination34.9484°
RAAN144.1377°
Arg. of periapsis171.9492°
True anomaly188.12254°
Mean anomaly188.137°
Eccentric anomaly188.12977°
Mean motion3.83608 °/min
BSTAR0.00066539
Orbital period93.85 mins
Loading maneuver chart data...
Loading historical data...
Loading historical data...
Loading historical data...
Loading historical data...
Loading historical data...
Loading historical data...
Loading historical data...

CYGFM07 Visibility forecast

Observer location: undefined°, undefined

Span
Click to sort rows by Start time (UTC) header in descending order
Start Az.
Max El. time (UTC)
Max El. Az.
Max El.
End time (UTC)
End Az.
5 mins2024-12-27 13:17:24.140Z211.732° SW2024-12-27 13:20:24.140Z154.979° SSE19.62°2024-12-27 13:22:24.140Z117.215° SE
5 mins2024-12-27 14:56:24.140Z235.359° WSW2024-12-27 14:58:24.140Z187.472° SSW30.048°2024-12-27 15:01:24.140Z113.476° SE
4 mins2024-12-27 16:35:24.140Z238.722° WSW2024-12-27 16:37:24.140Z187.625° SSW25.468°2024-12-27 16:39:24.140Z141.278° SSE
|